Weather Roundup
Issued by NWS Chicago, IL

Home | Current Version | Previous Version | Text Only | Print | Product List | Glossary On
Versions: 1 2 3 4 5 6 7 8 9 10 11 12 13 14 15 16 17 18 19 20 21 22 23 24 25 26 27 28 29 30 31 32 33 34 35 36 37 38 39 40 41 42 43 44 45 46 47 48 49 50
000
NZUS59 KLOT 041321
HRRLOT

CHICAGO AREA WEATHER ROUNDUP
NATIONAL WEATHER SERVICE CHICAGO/ROMEOVILLE IL
800 AM CDT MON MAY 04 2015

NOTE: "FAIR" INDICATES FEW OR NO CLOUDS BELOW 12,000 FEET WITH NO
SIGNIFICANT WEATHER AND/OR OBSTRUCTIONS TO VISIBILITY.

* THESE STATIONS ARE NOT UNDER NWS QUALITY CONTROL. THEY ALSO MAY NOT
  REPORT WEATHER SUCH AS PRECIPITATION OR FOG.

ILZ005-006-012>014-019>023-041400-
NORTHEAST ILLINOIS

CITY           SKY/WX    TMP DP  RH WIND       PRES   REMARKS
OHARE          CLOUDY    62  55  77 W3        30.02R
MIDWAY         CLOUDY    66  57  72 CALM      30.03R
AURORA         CLOUDY    62  56  80 SW7       30.04R
LANSING*       CLOUDY    61  56  85 SW7       30.03R
JOLIET*        CLOUDY    63  60  91 SW5       30.05R
WAUKEGAN       CLOUDY    62  56  80 SW7       30.01R
DUPAGE AIRPORT CLOUDY    62  56  80 W6        30.02R
WHEELING       CLOUDY    63  55  75 W6        30.04R
KANKAKEE*      DRIZZLE   59  57  92 S14       30.06R
MORRIS*        CLOUDY    61  58  88 S14       30.01R
LEWIS AIRPORT* CLOUDY    62  58  87 W6        30.05R
NORTHERLY IS     N/A     65  54  67 W5          N/A
$$

WIZ051-052-058>065-066-070>072-041400-
SOUTHEAST WISCONSIN

CITY           SKY/WX    TMP DP  RH WIND       PRES   REMARKS
MILWAUKEE      CLOUDY    62  55  77 NW8       30.00R
KENOSHA*       CLOUDY    61  57  87 NW6       30.02R
RACINE*        CLOUDY    62  55  77 NW6       30.03R
BURLINGTON     CLOUDY    57  56  95 CALM      30.02R
WAUKESHA       CLOUDY    57  55  94 NW7       30.02R
WEST BEND      CLOUDY    59  54  82 NW7       30.02R
$$

INZ001>003-010>013-019-020-041400-
NORTHWEST INDIANA

CITY           SKY/WX    TMP DP  RH WIND       PRES   REMARKS
GARY*          CLOUDY    63 N/A N/A SW14      30.02R
MICHIGAN CITY* NOT AVBL
RENSSELAER*    NOT AVBL
VALPARAISO     RAIN      60  58  92 SW13      30.05R FOG
$$

LMZ740>746-041400-
SOUTHERN LAKE MICHIGAN

STATION/POSITION TIME  SKY/WX   TEMP WIND        PRES    VSBY
                                AIR  DIR/SP/G
                 (UTC)          (F)  (DEG/KT/KT) (MB)    (MI)
HARRISON CRIB    1300            63  260/  6/  8   N/A
BURNHAM HARBOR   1300            65  250/  3/  7   N/A
CALUMET HARBOR   1206            63  210/  9/ 13   N/A
BURNS HARBOR     1200            63  210/ 18/ 22 1016.6
MICHIGAN CITY    1300            62  180/ 12/ 15   N/A
$$

ABBREVIATIONS USED IN REMARKS
   TC - TEMPERATURE IN CELSIUS
  WCI - WIND CHILL INDEX
   HX - HEAT INDEX
  VSB - VISIBILITY
$$


USA.gov is the U.S. government's official web portal to all federal, state and local government web resources and services.